Regional Weather Roundup
Issued by NWS Sioux Falls, SD

Home | Current Version | Previous Version | Graphics & Text | Print | Product List | Glossary Off
Versions: 1 2 3 4 5 6 7 8 9 10 11 12 13 14 15 16 17 18 19 20 21 22 23 24 25 26 27 28 29 30 31 32 33 34 35 36 37 38 39 40 41 42 43 44 45 46 47 48 49 50

000
ASUS43 KFSD 181602
RWRFSD

WEATHER ROUNDUP FOR SE SOUTH DAKOTA/SW MINNESOTA/NW IOWA
NATIONAL WEATHER SERVICE SIOUX FALLS SD
1100 AM CDT SAT APR 18 2015

NOTE: "FAIR" INDICATES FEW OR NO CLOUDS BELOW 12,000 FEET WITH NO
SIGNIFICANT WEATHER AND OR OBSTRUCTIONS TO VISIBILITY.


SDZ038>040-050-052>070-181700-
SOUTHEAST SOUTH DAKOTA

CITY           SKY/WX    TMP DP  RH WIND       PRES   REMARKS
BROOKINGS      CLOUDY    64  27  24 E17G23    29.99F
CHAMBERLAIN    NOT AVBL
HURON          PTSUNNY   66  26  22 SE10G20   29.96S
MADISON        FAIR      64  25  22 E20       29.97F
MITCHELL       LGT RAIN  61  33  35 SE12      29.95F
SIOUX FALLS    CLOUDY    58  40  51 E10       29.95F
WINNER         FAIR      52  46  80 SE12      29.93R
YANKTON        CLOUDY    54  48  82 SW10      29.96R
$$

MNZ071-072-080-081-089-090-097-098-181700-
SOUTHWEST MINNESOTA

CITY           SKY/WX    TMP DP  RH WIND       PRES   REMARKS
FAIRMONT       PTSUNNY   70  32  24 SE22      29.99F
JACKSON        PTSUNNY   68  30  24 E16       30.00F
LUVERNE        CLOUDY    66  32  28 E16       29.97F
MARSHALL       MOSUNNY   64  28  25 E15       30.00F
MONTEVIDEO     SUNNY     66  30  26 S15       30.02F
PIPESTONE      CLOUDY    66  27  22 SE18G25   29.98F
REDWOOD FALLS  MOSUNNY   65  31  28 E10       30.01F
TRACY          PTSUNNY   66  31  27 E13       30.00F
WORTHINGTON    PTSUNNY   66  32  28 E16G24    29.99F
$$

IAZ001>003-012>014-020>022-031-032-NEZ013-014-SDZ071-181700-
NORTHWEST IOWA

CITY           SKY/WX    TMP DP  RH WIND       PRES   REMARKS
DENISON        CLOUDY    63  59  88 SE20G37   29.92R
ESTHERVILLE    PTSUNNY   66  36  32 SE18G29   29.99F
SIOUX CITY     LGT RAIN  60  54  80 E8        29.92S
SPENCER        CLOUDY    67  40  37 E17G26    29.97F
$$

ABBREVIATIONS USED IN REMARKS
   TC - TEMPERATURE IN CELSIUS
  WCI - WIND CHILL INDEX
   HX - HEAT INDEX
  VSB - VISIBILITY



USA.gov is the U.S. government's official web portal to all federal, state and local government web resources and services.